Location: Newark
(54.8972°N, 99.8189°W)
Time: 03:02:46
(UTC+00:00)

Transit 2A - Pass Details

Date: 24 November 2019
Orbit: 602 x 957 km, 66.7° (Epoch: 07 December)

Event Time Altitude Azimuth Distance (km) Brightness Sun altitude
Rises 02:41:57 0° 313° (NW) 2,866 9.8 -36.0°
Reaches altitude 10° 02:44:25 10° 301° (WNW) 1,956 8.8 -36.3°
Enters shadow 02:45:32 16° 292° (WNW) 1,595 8.3 -36.5°
